Tiempo cada hora Çaycuma

Hoy, 17 Abril, Sábado

Tiempo Temperatura Precipitaciones Viento Presión Humedad
00:00 +10°C° 0 mm 1 mps 761 mmHg 91%
01:00 +10°C° 0 mm 1 mps 761 mmHg 90%
02:00 +10°C° 0 mm 1 mps 761 mmHg 90%
03:00 +10°C° 0.2 mm 1 mps 761 mmHg 91%
04:00 +9°C° 0.2 mm 2 mps 761 mmHg 92%
05:00 +9°C° 0.2 mm 2 mps 760 mmHg 93%
06:00 +10°C° 0 mm 2 mps 760 mmHg 91%
07:00 +12°C° 0 mm 2 mps 760 mmHg 88%
08:00 +13°C° 0 mm 2 mps 760 mmHg 85%
09:00 +13°C° 0 mm 3 mps 760 mmHg 82%
10:00 +14°C° 0 mm 3 mps 759 mmHg 80%
11:00 +16°C° 0 mm 3 mps 759 mmHg 77%
12:00 +16°C° 0.3 mm 3 mps 759 mmHg 78%
13:00 +17°C° 0.3 mm 3 mps 758 mmHg 79%
14:00 +17°C° 0 mm 4 mps 758 mmHg 84%
15:00 +18°C° 0 mm 3 mps 757 mmHg 83%
16:00 +18°C° 0 mm 3 mps 756 mmHg 82%
17:00 +19°C° 0 mm 2 mps 756 mmHg 82%
18:00 +18°C° 0.1 mm 2 mps 755 mmHg 85%
19:00 +16°C° 0.1 mm 2 mps 755 mmHg 88%
20:00 +15°C° 0.1 mm 2 mps 755 mmHg 92%
21:00 +15°C° 0 mm 2 mps 755 mmHg 91%
22:00 +15°C° 0 mm 2 mps 755 mmHg 90%
23:00 +15°C° 0 mm 2 mps 754 mmHg 89%

Mañana, 18 Abril, Domingo

Tiempo Temperatura Precipitaciones Viento Presión Humedad
00:00 +15°C° 0 mm 2 mps 755 mmHg 88%
01:00 +14°C° 0 mm 3 mps 755 mmHg 87%
02:00 +14°C° 0 mm 3 mps 755 mmHg 86%
03:00 +13°C° 0 mm 3 mps 755 mmHg 88%
04:00 +13°C° 0 mm 3 mps 756 mmHg 89%
05:00 +13°C° 0 mm 2 mps 756 mmHg 90%
06:00 +15°C° 0.1 mm 2 mps 756 mmHg 85%
07:00 +17°C° 0.1 mm 2 mps 756 mmHg 79%
08:00 +20°C° 0.1 mm 1 mps 756 mmHg 74%
09:00 +21°C° 0 mm 1 mps 756 mmHg 71%
10:00 +21°C° 0 mm 2 mps 756 mmHg 68%
11:00 +23°C° 0 mm 2 mps 756 mmHg 65%
12:00 +24°C° 0.1 mm 2 mps 756 mmHg 65%
13:00 +24°C° 0.1 mm 2 mps 756 mmHg 66%
14:00 +24°C° 0.1 mm 2 mps 756 mmHg 67%
15:00 +21°C° 0.7 mm 2 mps 756 mmHg 74%
16:00 +20°C° 0.7 mm 2 mps 757 mmHg 82%
17:00 +18°C° 0.7 mm 2 mps 757 mmHg 90%
18:00 +17°C° 0.4 mm 2 mps 758 mmHg 91%
19:00 +18°C° 0.4 mm 1 mps 758 mmHg 92%
20:00 +16°C° 0.4 mm 1 mps 758 mmHg 93%
21:00 +16°C° 0 mm 1 mps 758 mmHg 92%
22:00 +16°C° 0 mm 1 mps 758 mmHg 91%
23:00 +16°C° 0 mm 1 mps 758 mmHg 90%

Pasado mañana, 19 Abril, Lunes

Tiempo Temperatura Precipitaciones Viento Presión Humedad
00:00 +16°C° 0.1 mm 1 mps 758 mmHg 90%
01:00 +16°C° 0.1 mm 1 mps 758 mmHg 90%
02:00 +16°C° 0.1 mm 1 mps 758 mmHg 90%
03:00 +16°C° 0.1 mm 1 mps 757 mmHg 90%
04:00 +16°C° 0.1 mm 2 mps 757 mmHg 90%
05:00 +16°C° 0.1 mm 2 mps 756 mmHg 90%
06:00 +18°C° 0.2 mm 2 mps 756 mmHg 86%
07:00 +19°C° 0.2 mm 2 mps 756 mmHg 81%
08:00 +20°C° 0.2 mm 2 mps 756 mmHg 76%
09:00 +23°C° 0 mm 2 mps 755 mmHg 69%
10:00 +24°C° 0 mm 1 mps 755 mmHg 61%
11:00 +25°C° 0 mm 1 mps 754 mmHg 54%
12:00 +25°C° 0.1 mm 1 mps 754 mmHg 58%
13:00 +24°C° 0.1 mm 2 mps 753 mmHg 63%
14:00 +23°C° 0.1 mm 2 mps 753 mmHg 68%
15:00 +21°C° 0.1 mm 2 mps 753 mmHg 73%
16:00 +20°C° 0.1 mm 2 mps 752 mmHg 78%
17:00 +18°C° 0.1 mm 3 mps 752 mmHg 84%
18:00 +18°C° 0.6 mm 2 mps 752 mmHg 88%
19:00 +17°C° 0.6 mm 2 mps 753 mmHg 92%
20:00 +16°C° 0.6 mm 1 mps 753 mmHg 96%
21:00 +16°C° 0.4 mm 1 mps 753 mmHg 94%
22:00 +15°C° 0.4 mm 1 mps 752 mmHg 92%
23:00 +15°C° 0.4 mm 2 mps 751 mmHg 90%

20 Abril, Martes

Tiempo Temperatura Precipitaciones Viento Presión Humedad
00:00 +15°C° 1 mm 2 mps 751 mmHg 92%
01:00 +15°C° 1 mm 2 mps 751 mmHg 93%
02:00 +14°C° 1 mm 2 mps 750 mmHg 94%
03:00 +14°C° 0.3 mm 2 mps 750 mmHg 92%
04:00 +13°C° 0.3 mm 3 mps 750 mmHg 91%
05:00 +13°C° 0.3 mm 3 mps 750 mmHg 89%
06:00 +13°C° 0.2 mm 3 mps 751 mmHg 86%
07:00 +14°C° 0.2 mm 4 mps 751 mmHg 82%
08:00 +14°C° 0.2 mm 4 mps 752 mmHg 79%
09:00 +15°C° 0.4 mm 5 mps 752 mmHg 75%
10:00 +15°C° 0.4 mm 6 mps 752 mmHg 72%
11:00 +16°C° 0.4 mm 7 mps 753 mmHg 68%
12:00 +15°C° 0.2 mm 7 mps 753 mmHg 71%
13:00 +15°C° 0.2 mm 6 mps 754 mmHg 73%
14:00 +15°C° 0.2 mm 6 mps 755 mmHg 76%
15:00 +13°C° 0.2 mm 5 mps 755 mmHg 79%
16:00 +12°C° 0.2 mm 4 mps 756 mmHg 83%
17:00 +12°C° 0.2 mm 2 mps 757 mmHg 86%
18:00 +12°C° 0.1 mm 2 mps 757 mmHg 86%
19:00 +12°C° 0.1 mm 2 mps 758 mmHg 86%
20:00 +12°C° 0.1 mm 1 mps 758 mmHg 87%
21:00 +11°C° 0 mm 1 mps 758 mmHg 88%
22:00 +11°C° 0 mm 1 mps 758 mmHg 89%
23:00 +10°C° 0 mm 1 mps 758 mmHg 90%

21 Abril, Miércoles

Tiempo Temperatura Precipitaciones Viento Presión Humedad
00:00 +10°C° 0 mm 1 mps 758 mmHg 89%
01:00 +10°C° 0 mm 1 mps 759 mmHg 89%
02:00 +10°C° 0 mm 1 mps 759 mmHg 89%
03:00 +9°C° 0 mm 1 mps 759 mmHg 89%
04:00 +9°C° 0 mm 1 mps 759 mmHg 88%
05:00 +9°C° 0 mm 1 mps 759 mmHg 88%
06:00 +11°C° 0 mm 1 mps 759 mmHg 82%
07:00 +13°C° 0 mm 1 mps 759 mmHg 75%
08:00 +14°C° 0 mm 0 mps 759 mmHg 69%
09:00 +16°C° 0 mm 1 mps 759 mmHg 63%
10:00 +18°C° 0 mm 1 mps 759 mmHg 58%
11:00 +18°C° 0 mm 2 mps 759 mmHg 53%
12:00 +18°C° 0.1 mm 2 mps 759 mmHg 54%
13:00 +18°C° 0.1 mm 3 mps 759 mmHg 55%
14:00 +18°C° 0.1 mm 3 mps 759 mmHg 56%
15:00 +18°C° 0.1 mm 3 mps 759 mmHg 59%
16:00 +17°C° 0.1 mm 2 mps 759 mmHg 62%
17:00 +16°C° 0.1 mm 2 mps 760 mmHg 65%
18:00 +15°C° 0 mm 2 mps 760 mmHg 71%
19:00 +13°C° 0 mm 2 mps 760 mmHg 77%
20:00 +12°C° 0 mm 1 mps 761 mmHg 83%
21:00 +10°C° 0 mm 2 mps 761 mmHg 83%
22:00 +10°C° 0 mm 2 mps 761 mmHg 82%
23:00 +10°C° 0 mm 2 mps 761 mmHg 82%

22 Abril, Jueves

Tiempo Temperatura Precipitaciones Viento Presión Humedad
00:00 +10°C° 0 mm 2 mps 761 mmHg 81%
01:00 +10°C° 0 mm 2 mps 761 mmHg 80%
02:00 +9°C° 0 mm 2 mps 761 mmHg 80%
03:00 +9°C° 0 mm 2 mps 761 mmHg 79%
04:00 +9°C° 0 mm 2 mps 762 mmHg 79%
05:00 +9°C° 0 mm 2 mps 762 mmHg 79%
06:00 +12°C° 0 mm 1 mps 762 mmHg 73%
07:00 +14°C° 0 mm 1 mps 762 mmHg 67%
08:00 +15°C° 0 mm 0 mps 762 mmHg 60%
09:00 +18°C° 0 mm 1 mps 762 mmHg 56%
10:00 +20°C° 0 mm 1 mps 762 mmHg 51%
11:00 +20°C° 0 mm 2 mps 762 mmHg 47%
12:00 +20°C° 0 mm 2 mps 762 mmHg 48%
13:00 +20°C° 0 mm 2 mps 762 mmHg 50%
14:00 +20°C° 0 mm 2 mps 762 mmHg 52%
15:00 +19°C° 0 mm 2 mps 762 mmHg 56%
16:00 +18°C° 0 mm 2 mps 762 mmHg 59%
17:00 +17°C° 0 mm 2 mps 762 mmHg 63%
18:00 +16°C° 0 mm 2 mps 762 mmHg 69%
19:00 +14°C° 0 mm 2 mps 762 mmHg 76%
20:00 +12°C° 0 mm 2 mps 762 mmHg 82%
21:00 +12°C° 0 mm 2 mps 762 mmHg 82%
22:00 +12°C° 0 mm 2 mps 762 mmHg 82%
23:00 +12°C° 0 mm 2 mps 762 mmHg 81%
Mostrar más

Necesitamos Su Consentimiento

Meteoprog y nuestros Proveedores de Servicios pueden almacenar y acceder a sus datos personales como cookies, identificadores de dispositivo u otras tecnologías similares de su dispositivo y procesar dichos datos para personalizar contenido y anuncios, además de ofrecer funciones de redes sociales y analizar el tráfico.

  • Almacenar y/o acceder a información en su dispositivo

    Se puede almacenar o acceder a cookies, identificadores de dispositivo u otra información de su dispositivo para los fines anteriormente indicados.

  • Anuncios y contenido personalizados, medición de anuncios y contenido, percepciones del público, y desarrollo de productos

    Los anuncios y el contenido pueden personalizarse en base a su perfil. Se pueden añadir más datos para personalizar mejor los anuncios y contenidos. Se puede medir el rendimiento de los anuncios y contenidos. Se puede obtener la percepción sobre el público que ha visto los anuncios y contenidos. Dichos datos pueden usarse para desarrollar o mejorar la experiencia del usuario, sistemas y software.

Al hacer clic en ‘Estoy De Acuerdo’ usted permitirá el uso de las cookies, identificadores de dispositivo, balizas web u otras tecnologías similares indicadas. Su configuración puede cambiarse desde el navegador de su dispositivo.

Para ciertos fines, los intereses legítimos pueden ser considerados por encima del consentimiento. Puede leer más sobre ello en nuestra Política de Privacidad y Cookies.